Location: ????????
(55.0437°N, 38.0509°E)
Time: 08:24:14
(UTC+00:00)

Daily predictions for brighter satellites

Satellite Brightness Start Highest point End
(mag) Time Altitude Azimuth Time Altitude Azimuth Time Altitude Azimuth
NOSS 3-2 (C) 4.0 13:33:56 10° S 13:38:34 35° ESE 13:44:00 10° ENE
Cosmos 2297 Rocket 2.6 13:34:20 10° NW 13:40:00 73° WSW 13:45:39 10° SSE
Cosmos 2034 Rocket 4.4 13:34:32 10° SSW 13:40:53 73° WNW 13:47:18 10° N
ACS3 Solar Sail 4.4 13:38:45 10° WSW 13:41:18 13° WNW 13:43:53 10° NW
Cosmos 2266 Rocket 4.2 13:35:24 10° N 13:41:21 47° ENE 13:47:10 10° SE
Meteor 1-20 Rocket 4.3 13:36:33 10° N 13:41:54 52° ENE 13:47:15 10° SSE
Cosmos 1626 Rocket 3.5 13:37:33 10° N 13:41:55 83° E 13:46:12 10° SSE
Cosmos 1356 Rocket 3.4 13:39:30 10° SSW 13:43:35 85° WNW 13:47:43 10° NNE
Cosmos 2228 3.0 13:40:11 10° S 13:44:25 78° E 13:48:41 10° NNE
SJ 16-02 3.8 13:46:33 10° NW 13:47:14 10° NNW 13:47:55 10° NNW
Cosmos 2084 4.1 13:44:08 10° W 13:48:10 44° NNW 13:52:08 10° NE
Cosmos 44 Rocket 4.3 13:45:12 10° NW 13:49:45 32° NNE 13:54:21 10° E
Iridium 51 3.7 13:47:13 10° S 13:50:23 78° E 13:53:37 10° N
JB-3 4.3 13:49:25 10° NNE 13:53:02 55° E 13:56:35 10° S
Cosmos 1315 Rocket 3.2 13:50:09 10° SSW 13:53:57 63° WNW 13:57:47 10° N
IGS 5A 3.5 13:50:33 10° SE 13:54:24 53° ENE 13:58:18 10° N
CZ-4C R/B 3.5 13:49:17 10° NW 13:55:54 66° SW 14:04:12 10° SSE
Cosmos 1461 3.3 13:52:30 10° SSW 13:56:11 42° SE 13:59:53 10° NE
Cosmos 2151 2.9 13:52:34 10° N 13:56:44 64° ENE 14:00:52 10° SSE
Cosmos 1867 4.2 13:52:40 10° NW 13:58:05 64° SW 14:03:27 10° SSE
ARIANE 5 R/B 3.0 13:54:06 10° SE 13:58:49 39° ENE 14:03:37 10° N
Cosmos 1844 Rocket 3.8 13:56:00 10° NNW 14:00:38 25° NNE 14:05:16 10° E
USA 290 4.1 13:58:20 10° NW 14:01:22 36° WSW 14:04:24 10° S
CORIOLIS 4.2 13:58:46 10° SE 14:03:58 55° ENE 14:09:12 10° N
Cosmos 1544 Rocket 3.6 13:59:38 10° S 14:04:02 72° E 14:08:28 10° NNE
Cosmos 2219 3.5 13:58:54 10° NNW 14:04:28 47° NE 14:09:59 10° ESE
CENTAUR R/B 3.0 14:00:02 10° WSW 14:06:08 63° NNW 14:13:39 11° NE
Cosmos 1980 Rocket 3.6 14:02:59 10° SE 14:06:58 20° E 14:10:31 12° ENE
Cosmos 2263 Rocket 2.2 14:04:21 10° NNW 14:10:01 64° NE 14:15:40 10° SE
IRS-1C 4.3 14:06:25 10° SE 14:11:30 48° ENE 14:16:38 10° N
Meteor 1-28 Rocket 3.3 14:12:49 10° NNE 14:16:02 41° E 14:19:12 10° S
CBERS-1 4.1 14:12:28 10° SSE 14:17:36 86° WSW 14:22:44 10° NNW
Cosmos 1943 Rocket 4.0 14:15:32 10° NW 14:18:43 15° N 14:21:55 10° NNE
Meteor 1-5 Rocket 4.2 14:14:15 10° N 14:19:30 54° ENE 14:24:52 10° SSE
NOSS 2-2 (D) 2.8 14:18:06 10° WSW 14:21:12 69° NW 14:23:27 17° NE
Cosmos 1602 Rocket 3.8 14:17:18 10° NNW 14:21:42 76° W 14:26:01 10° S
CZ-2D R/B 3.2 14:21:37 10° SE 14:24:34 38° ENE 14:27:32 10° N
Cosmos 1782 2.8 14:21:56 10° SSW 14:25:31 68° WNW 14:29:06 10° N
SPOT 1/Viking Rocket 4.1 14:21:11 10° SE 14:25:51 35° ENE 14:30:32 10° N
SAR-Lupe-4 3.8 14:23:33 10° SE 14:26:58 46° ENE 14:30:24 10° N
AQUARIUS 4.4 14:22:58 10° SE 14:27:10 45° ENE 14:31:24 10° N
NOSS 2-3 (E) 4.4 14:24:25 10° S 14:27:30 26° ESE 14:29:28 17° E
Cosmos 1538 Rocket 4.0 14:22:14 10° NNW 14:27:32 67° ENE 14:32:50 10° SE
YAOGAN 1 3.6 14:24:33 10° ESE 14:27:51 22° ENE 14:31:10 10° N
Meteor 1-25 Rocket 4.3 14:24:23 10° NNW 14:30:15 88° ENE 14:36:02 10° SSE
Cosmos 2227 Rocket 2.7 14:26:10 10° NW 14:31:47 67° WSW 14:37:22 10° SSE
Okean 1-7 Rocket 3.6 14:29:18 10° NNW 14:33:43 82° W 14:38:04 10° S
SL-16 R/B 2.5 14:28:51 10° NNE 14:35:07 82° ESE 14:41:20 10° SSW
Cosmos 2369 Rocket 3.9 14:32:47 10° WNW 14:37:13 23° NNW 14:41:42 10° NNE
Cosmos 1933 3.2 14:34:18 10° S 14:38:03 58° E 14:41:44 11° NNE
Cosmos 1743 4.3 14:36:38 10° NNW 14:39:33 31° W 14:42:28 10° SSW
Cosmos 1503 Rocket 3.9 14:34:25 10° SSW 14:39:38 83° ESE 14:44:31 12° NNE
USA 238 DEB 4.3 14:34:35 10° S 14:40:04 34° ESE 14:44:05 18° ENE
MOS 1 Rocket 3.5 14:35:10 10° SSE 14:40:09 59° ENE 14:45:23 10° N
USA 238 4.3 14:34:43 10° S 14:40:11 34° ESE 14:44:11 18° ENE
SAR-Lupe-1 4.1 14:36:52 10° SSE 14:40:25 56° ENE 14:43:59 10° N
SMAP 3.1 14:36:31 10° SSE 14:41:10 88° WSW 14:45:52 10° NNW
Lacrosse 4 Rocket 3.2 14:39:25 10° WNW 14:42:32 21° NNW 14:45:13 12° NNE
PSLV R/B 4.4 14:40:53 12° ESE 14:43:44 25° ENE 14:47:05 10° N
Landsat 7 3.7 14:40:21 10° SSE 14:44:59 81° ENE 14:49:41 10° NNW
Cosmos 1697 Rocket 2.7 14:39:52 10° SSW 14:45:25 66° ESE 14:49:54 16° NE
USA 215 3.3 14:40:15 17° ENE 14:45:32 79° N 14:52:06 10° W
Cosmos 1953 Rocket 3.5 14:42:22 10° N 14:46:50 65° ENE 14:51:15 10° SSE
Lacrosse 5 rocket 1.1 14:43:33 10° W 14:47:14 62° N 14:49:01 27° ENE
Thor Agena Rocket 3.9 14:43:25 10° S 14:48:34 68° WSW 14:53:42 10° NNW
COSMO-SKYMED 1 4.5 14:51:25 13° ESE 14:51:25 13° ESE 14:52:10 10° SE
NOSS 2-2 (E) 3.2 14:46:46 10° WSW 14:49:47 50° NNW 14:51:12 26° NNE
Cosmos 1656 4.2 14:45:16 10° SW 14:50:50 56° NW 14:55:57 13° NNE
Cosmos 2360 4.5 14:45:19 10° SW 14:51:02 70° NW 14:56:03 14° NNE
Cosmos 1354 Rocket 3.9 14:46:03 10° SSW 14:51:18 75° ESE 14:55:39 15° NNE
Cosmos 1777 Rocket 4.2 14:46:20 10° SSW 14:51:34 74° WNW 14:56:25 12° NNE
SJ-12 3.6 14:48:16 10° SSE 14:52:03 80° ENE 14:55:52 10° NNW
Cosmos 2278 Rocket 4.0 14:48:59 10° NNW 14:52:28 16° N 14:54:34 14° NNE
BREEZE-M DEB (TANK) 4.3 14:50:14 10° WSW 14:53:18 44° S 15:01:52 10° ESE
Cosmos 1825 Rocket 3.8 14:49:41 10° NNW 14:54:02 70° W 14:58:19 10° S
Cosmos 1076 Rocket 3.4 14:51:37 10° N 14:55:58 84° E 15:00:17 10° SSE
Cosmos 1898 Rocket 4.2 14:53:08 10° SSE 14:57:38 31° ESE 14:59:22 25° ENE
NOSS 2-2 (C) 4.1 14:55:24 10° W 14:58:02 27° NNW 14:59:06 22° NNE
ERS-1 4.4 14:54:25 10° SSE 14:59:24 87° ENE 15:04:23 10° NNW
Spot 4 Rocket 4.2 14:55:08 10° SE 14:59:59 46° ENE 15:04:53 10° N
Cosmos 2112 Rocket 4.3 14:55:06 10° NNW 15:00:03 42° NE 15:04:01 15° ESE
IRS-P3 4.0 14:55:11 10° SSE 15:00:30 79° ENE 15:05:51 10° NNW
Cosmos 2098 Rocket 4.4 14:58:34 10° SW 15:03:03 47° WNW 15:08:14 10° N
Cosmos 1805 2.9 15:02:23 10° N 15:05:43 54° ENE 15:09:00 10° SSE
Cosmos 1655 Rocket 4.0 15:01:48 10° NNW 15:08:05 86° W 15:14:19 10° S
Cosmos 923 Rocket 3.9 15:03:41 10° NNW 15:08:54 67° ENE 15:14:03 10° SE
Radarsat Rocket 4.5 15:01:57 10° SE 15:09:33 59° ENE 15:16:18 10° NNW
Cosmos 1937 Rocket 4.2 15:07:13 10° SSE 15:11:42 31° ESE 15:12:17 30° E
Cosmos 990 Rocket 3.9 15:08:56 10° SSW 15:14:05 87° WNW 15:17:45 20° NNE
Cosmos 1844 3.9 15:09:27 10° NNW 15:14:53 47° NE 15:17:29 28° ESE
GEOS 3 Rocket 4.0 15:12:45 29° ENE 15:15:14 50° SE 15:20:27 10° SSW
Resurs 01 Rocket 3.2 15:18:08 19° NNE 15:18:08 19° NNE 15:19:44 10° N
Cosmos 494 Rocket 4.2 15:15:09 10° NNW 15:20:17 49° NE 15:22:41 28° ESE
Cosmos 2082 3.8 15:15:15 10° NW 15:21:00 81° WSW 15:26:43 10° SSE
Meteor 2-11 Rocket 4.5 15:15:01 10° N 15:21:05 55° ENE 15:27:06 10° SSE
Gbstr 26 Del rocket 3.3 15:18:15 10° WSW 15:22:03 42° SSE 15:22:51 36° SE
SJ-7 4.2 15:23:14 43° ESE 15:24:07 56° ENE 15:27:50 10° N
NOSS 3-2 (A) 3.9 15:19:44 10° W 15:25:08 51° NNW 15:28:38 26° NE
Cosmos 2058 Rocket 3.0 15:23:34 10° S 15:27:59 64° E 15:29:48 34° NNE
NOSS 3-2 (C) 3.4 15:23:33 10° WSW 15:28:55 71° NNW 15:32:13 29° NE
CZ-4 R/B 4.3 15:25:37 10° SSE 15:29:34 83° WSW 15:33:32 10° NNW
IRAS Rocket 4.1 15:24:56 10° SE 15:30:21 66° ENE 15:35:48 10° NNW
Cosmos 44 Rocket 3.3 15:26:45 10° NW 15:31:53 74° NE 15:34:02 36° ESE
Cosmos 1606 Rocket 4.4 15:27:53 10° SSW 15:32:13 51° WNW 15:36:34 10° N
Cosmos 1461 3.6 15:29:13 10° WSW 15:32:58 42° NNW 15:34:00 34° N
Cosmos 2227 4.1 15:27:23 10° NNW 15:33:04 67° NE 15:36:18 26° SE
Aureole 1 Rocket 3.5 15:28:55 10° SSW 15:33:48 74° ESE 15:37:03 28° NNE
Meteor 2-9 Rocket 4.3 15:31:01 10° N 15:36:08 43° ENE 15:36:10 43° ENE
SL-16 R/B 3.9 15:32:19 10° SSE 15:34:05 17° SE 15:34:05 17° SE
ARIANE 5 R/B 3.8 15:33:00 10° S 15:37:51 43° W 15:42:47 10° NNW
Okean 1 4.0 15:35:39 10° S 15:37:57 36° SSE 15:37:57 36° SSE
Cosmos-2242 2.8 15:35:22 10° S 15:39:36 75° E 15:40:30 54° NNE
Cosmos 1680 Rocket 3.4 15:34:57 10° NNW 15:40:13 84° ENE 15:45:16 11° SSE
Cosmos 1844 Rocket 2.6 15:39:48 10° NNW 15:45:29 72° NE 15:47:51 36° SE
BREEZE-M DEB (TANK) 4.5 15:42:34 10° WSW 15:46:08 38° S 15:56:40 10° SE
Resurs 1-3 3.5 15:42:40 10° SSE 15:46:59 87° WSW 15:51:19 10° NNW
Cosmos 2219 4.2 15:43:11 10° NW 15:48:39 47° WSW 15:54:07 10° S
NOAA 6 3.8 15:44:03 10° SSE 15:49:08 75° ENE 15:54:15 10° NNW
Nadezhda 2 Rocket 4.4 15:43:10 10° NNW 15:49:20 84° W 15:55:26 10° S
Cosmos 1980 Rocket 2.1 15:44:33 10° SSW 15:50:13 88° SE 15:52:17 41° NE
USA 281 4.0 15:50:37 31° NE 15:50:43 31° NE 15:56:17 10° NNW
Cosmos 2263 Rocket 4.0 15:48:40 10° NW 15:53:37 32° WSW 15:58:34 10° SSW
OceanSat 1 rocket 4.5 15:49:52 10° SSE 15:54:36 88° ENE 15:59:20 10° NNW
Meteor 2-2 Rocket 4.1 15:51:15 10° S 15:56:54 86° E 16:00:12 26° NNE
Cosmos 1553 Rocket 3.8 15:51:30 10° S 15:57:41 77° E 16:04:00 10° NNE
CENTAUR R/B 3.5 15:51:28 10° WNW 15:58:01 45° N 16:00:45 34° NE
CZ-2D R/B 4.0 15:54:32 10° S 15:58:39 57° WSW 16:02:42 10° NNW
EO 1 Delta rocket 4.3 15:58:37 55° ENE 15:58:46 55° ENE 16:05:04 10° N
NOSS 2-3 (C) 3.6 15:56:52 10° SW 15:59:41 57° WSW 15:59:41 57° WSW
COSMOS 2455 3.4 15:55:02 10° S 15:59:48 39° SE 15:59:48 39° SE
Meteor 1-26 Rocket 4.0 15:55:44 10° SSW 16:01:07 87° WNW 16:03:54 30° NNE
YAOGAN 1 2.9 15:59:09 10° S 16:03:22 61° WSW 16:07:37 10° NNW
Cosmos 1943 Rocket 3.8 16:00:27 10° NNW 16:03:34 20° N 16:03:34 20° N
SPOT 1/Viking Rocket 4.4 16:00:01 10° S 16:05:04 50° W 16:10:09 10° NNW
Cosmos 1709 Rocket 3.9 15:59:01 10° N 16:05:05 60° ENE 16:05:38 58° E
Meteor 2-20 Rocket 4.5 16:01:05 10° SSW 16:07:13 76° WNW 16:12:37 13° N
Cosmos 2369 3.6 16:04:20 10° SSW 16:10:03 76° ESE 16:10:35 70° ENE
Cosmos 1745 Rocket 3.8 16:03:53 10° N 16:10:07 81° ENE 16:16:16 10° SSE
NOSS 2-3 (D) 4.2 16:12:08 10° WSW 16:15:00 47° W 16:15:00 47° W
SKYMED 2 3.9 16:16:13 65° WNW 16:16:14 65° WNW 16:20:32 10° SSW
NOSS 2-3 (E) 4.3 16:13:29 10° WSW 16:16:17 44° W 16:16:17 44° W
SL-16 R/B 4.2 16:12:59 10° N 16:18:09 29° NW 16:23:19 10° WSW
PSLV R/B 4.2 16:17:07 31° SSW 16:18:43 49° W 16:22:42 10° NNW
Lacrosse 4 Rocket 3.9 16:19:53 10° NNW 16:20:42 12° NNW 16:20:42 12° NNW
Cosmos 2369 Rocket 4.2 16:19:55 10° NW 16:23:24 16° N 16:23:38 16° N
Lacrosse 5 rocket 2.9 16:20:42 10° WNW 16:22:36 28° WNW 16:22:36 28° WNW
COSMO-SKYMED 1 4.3 16:27:44 24° SSW 16:27:44 24° SSW 16:29:27 10° SSW
USA 215 3.1 16:27:35 68° E 16:28:29 82° NNE 16:35:05 10° WNW
Cosmos 1697 Rocket 3.9 16:24:37 10° WSW 16:29:46 36° NW 16:31:37 29° N
USA 238 DEB 3.6 16:24:08 10° SW 16:30:26 79° NW 16:31:31 64° NNE
USA 238 3.6 16:24:15 10° SW 16:30:33 80° NW 16:31:37 64° NNE
Cosmos 2278 Rocket 3.9 16:33:45 10° NNW 16:36:24 21° N 16:36:24 21° N
Cosmos 1898 Rocket 4.0 16:34:21 10° SW 16:39:24 54° NW 16:39:35 54° NW
Cosmos 2333 Rocket 4.3 16:35:43 10° S 16:36:34 14° S 16:36:34 14° S
Cosmos 967 Rocket 4.5 16:38:30 10° SW 16:44:24 77° SSW 16:44:24 77° SSW
Resurs 01 Rocket 4.0 16:55:31 16° NNW 16:55:31 16° NNW 16:56:27 10° NNW
GEOS 3 Rocket 4.2 16:53:48 55° WNW 16:53:48 55° WNW 16:58:34 10° WSW
Cosmos 1937 Rocket 4.3 16:48:15 10° SW 16:52:25 48° W 16:52:25 48° W
Meteor 1-11 Rocket 4.3 16:50:37 10° NNW 16:55:23 56° NW 16:55:23 56° NW
SL-16 R/B 4.2 17:14:22 10° SW 17:15:59 20° SW 17:15:59 20° SW
Cosmos 1844 Rocket 4.4 17:24:13 10° NW 17:28:55 28° WSW 17:29:33 27° WSW
USA 281 4.3 17:37:29 37° NNW 17:37:29 37° NNW 17:41:10 10° NNW
Cosmos 1980 Rocket 3.9 17:30:00 10° W 17:34:02 28° NW 17:34:02 28° NW
CENTAUR R/B 3.7 17:42:38 10° NW 17:47:51 46° NNW 17:47:51 46° NNW
